CAPE
0 0 0 0 0 0 0 0 0 2 6 3 3 8 12 15 15 8 0 0 0 9 0 0 0 0 0 0 0 0 0 0 0 0 0 0 0 0 0 0 0 0 0 0 0 0 13 42 12 180 139 0 492 513
0 0 0 0 0 0 0 0 2 6 8 2 6 6 11 16 18 18 1 0 0 0 0 0 0 0 0 0 0 0 0 0 5 4 0 0 30 87 67 62 38 109 30 0 0 0 32 2 0 0 0 0 520 554
0 0 1 1 0 0 1 2 4 6 6 7 6 4 10 13 14 17 10 4 2 4 0 0 0 0 0 0 0 0 0 0 0 0 0 0 150 206 105 34 14 86 77 44 71 29 16 7 0 2 0 17 99 273
0 0 1 1 0 1 2 7 6 6 8 12 10 8 9 11 11 13 12 5 5 4 2 0 0 0 0 0 0 0 0 0 0 0 0 0 28 38 0 0 16 0 12 6 57 42 0 24 2 4 98 77 123 106
1 1 1 2 3 2 6 10 10 8 9 15 17 12 11 5 4 9 4 4 5 3 5 0 0 0 0 0 0 0 0 0 0 0 0 0 2 0 0 0 6 0 0 0 0 0 0 5 0 58 204 117 104 126
1 2 2 2 2 4 8 10 8 7 5 10 12 9 10 5 5 5 0 0 0 8 12 0 0 0 0 1 0 0 0 0 0 0 0 0 0 0 0 0 12 0 0 0 0 0 1 22 103 205 243 209 49 13
1 2 1 2 3 5 7 11 10 4 5 5 3 3 5 2 7 1 0 0 0 5 11 1 26 85 2 0 0 0 0 0 0 0 0 0 0 0 0 0 0 0 0 0 0 0 0 0 0 36 258 155 9 80
0 1 1 2 5 6 7 10 9 5 3 0 0 0 1 4 3 1 0 0 0 3 5 12 70 72 49 25 0 0 0 0 0 0 0 0 0 0 0 0 17 9 2 0 0 0 0 0 0 0 50 164 138 187
0 0 1 4 5 5 8 4 7 6 0 0 0 0 0 0 13 4 0 0 0 0 11 80 69 69 125 54 63 59 49 0 0 0 0 0 0 0 0 0 7 3 0 0 0 0 0 0 0 0 54 258 149 49
0 0 2 1 4 6 5 4 8 0 0 0 0 2 23 2 0 0 0 3 3 5 4 5 11 69 161 207 142 221 86 18 24 0 0 0 0 0 11 7 106 70 31 11 0 0 0 14 147 2 95 197 164 0
0 1 3 6 6 7 6 6 8 0 0 0 0 1 0 0 1 23 59 48 25 28 23 16 4 0 23 149 169 152 304 204 25 26 56 95 25 257 220 242 117 60 14 0 0 4 207 450 417 98 12 101 59 54
1 2 3 5 4 6 6 5 7 1 3 1 1 3 3 3 23 30 55 130 91 69 106 65 68 34 86 325 185 34 122 145 149 121 160 138 915 706 295 217 80 3 208 266 367 263 133 222 248 43 0 0 1 89
1 3 5 3 2 5 7 8 1 0 0 9 7 5 6 32 12 30 3 67 119 211 97 427 345 307 327 429 305 77 93 80 119 75 128 511 1042 747 590 246 146 171 262 238 152 210 188 246 105 50 126 95 105 109
1 3 2 3 2 1 2 0 0 0 0 12 11 0 7 18 22 45 28 129 45 116 147 311 428 507 452 349 349 144 137 128 54 112 188 574 670 843 571 446 189 167 186 114 114 107 81 30 35 30 20 5 3 1
2 4 1 1 0 0 0 0 0 5 26 6 3 12 18 44 58 27 14 59 31 13 190 198 218 190 159 153 177 138 125 105 85 151 527 608 688 819 610 475 259 129 38 0 0 0 0 0 0 0 4 7 46 162
3 0 0 0 0 0 0 0 1 31 25 8 3 2 19 51 29 28 21 29 3 3 93 171 31 58 58 98 106 96 89 101 123 254 685 510 505 590 863 634 318 134 6 0 0 0 0 0 0 3 1 5 4 9
4 3 0 0 0 0 0 1 34 23 18 8 7 5 13 37 32 31 23 33 8 29 95 70 11 35 67 97 67 163 122 88 111 9 19 376 430 633 563 201 174 86 18 1 0 0 0 0 15 0 0 0 0 0
8 5 0 0 0 0 11 21 34 39 28 7 6 2 28 10 10 18 33 23 24 71 81 53 55 45 48 43 43 159 93 109 147 9 67 341 342 282 541 130 142 79 3 0 0 21 12 23 3 1 0 0 0 0
6 11 0 0 1 5 20 23 39 21 16 23 28 19 16 32 45 28 5 3 23 64 69 80 66 54 40 65 125 136 138 122 109 449 509 580 646 472 454 363 214 75 25 0 12 49 175 84 52 0 0 6 4 29
0 0 0 0 6 38 28 21 56 33 10 21 10 14 41 30 26 27 17 0 14 35 59 26 7 41 22 32 44 16 83 110 171 134 134 356 415 436 362 320 269 127 189 107 175 101 250 167 37 125 10 29 53 6
0 4 0 1 27 23 34 22 32 42 32 16 6 23 16 17 16 12 19 36 32 14 14 18 14 21 92 236 213 259 116 53 261 252 294 300 415 288 229 296 343 206 14 34 49 35 9 46 96 58 17 69 183 16
48 1 33 13 48 61 17 2 4 18 5 0 0 0 1 1 8 13 9 20 10 8 14 9 1 16 45 116 186 235 317 116 77 29 15 34 295 342 306 317 152 69 28 30 39 40 56 62 44 154 129 25 15 14
2 8 37 60 46 11 0 27 6 18 19 13 25 46 58 61 88 62 36 33 38 143 134 133 159 211 264 232 223 204 280 233 108 75 91 111 163 362 290 162 143 81 32 45 41 54 45 50 12 19 19 38 24 58
0 16 40 49 13 0 16 35 36 17 8 24 21 30 41 70 82 69 32 93 193 227 262 114 139 84 137 149 117 105 273 243 167 131 103 52 69 30 221 138 69 55 35 38 28 44 57 20 9 16 31 1 9 14
38 5 9 0 9 28 12 18 19 29 28 41 33 19 61 52 9 22 52 182 366 366 92 52 18 5 6 0 8 43 332 325 200 88 65 17 78 11 16 46 40 46 49 60 96 48 120 22 11 10 28 27 38 54
1 14 0 22 20 26 32 28 35 49 43 24 13 40 66 53 18 42 66 70 41 33 29 5 1 1 0 1 1 6 199 309 288 113 102 28 13 3 12 65 34 42 89 102 117 102 59 58 51 54 52 42 15 32
1 6 23 26 23 29 23 25 24 16 16 10 17 29 38 15 11 55 117 99 67 67 1 0 0 0 6 4 1 0 0 24 66 131 211 182 37 36 5 55 37 52 194 155 72 66 79 57 93 114 59 108 52 25
10 8 10 37 43 39 14 16 16 13 13 24 20 14 11 19 43 151 149 352 25 0 0 0 0 0 4 0 0 0 0 53 16 14 70 120 157 36 1 31 85 17 133 119 36 28 33 52 53 43 101 134 16 28
9 13 20 9 18 17 11 12 8 4 3 1 5 3 2 10 3 0 1 4 1 11 5 0 0 0 0 0 0 0 0 66 107 64 91 82 95 29 41 151 124 51 22 19 73 41 17 59 64 56 160 315 57 22
0 4 4 2 4 1 0 1 5 11 9 3 3 0 0 0 0 16 0 16 93 73 46 25 8 2 13 2 15 21 0 7 20 48 84 79 36 11 58 76 68 54 31 45 53 65 98 0 4 20 66 280 321 280
7 5 3 2 2 0 0 0 0 0 0 0 0 0 0 0 18 51 112 107 61 37 76 40 19 22 27 29 39 16 0 0 16 48 46 24 28 40 135 272 116 13 5 7 17 21 47 58 19 155 223 406 236 282
2 0 0 1 0 0 0 0 0 0 7 13 4 25 38 59 38 8 62 99 62 31 11 5 19 1 34 145 74 27 1 22 50 15 59 6 0 12 204 196 222 236 342 426 329 224 267 316 95 68 189 335 478 100
0 0 0 2 1 0 1 0 22 32 87 119 79 276 266 46 86 354 86 206 275 74 12 24 60 23 21 44 56 44 11 95 153 16 0 0 4 24 3 0 0 209 142 83 41 68 41 18 319 344 269 100 17 173
CIN
-0 -0 -0 -0 -0 -0 -0 -0 -0 -0 -0 -0 -0 -0 -0 -0 -1 -0 -0 -0 -2 -0 -0 -0 -0 -0 -0 -0 -0 -0 -0 -0 -0 -0 -0 -0 -0 -0 -0 -0 -0 -0 -0 -0 -0 -0 -22 -143 -181 -111 -162 -0 -146 -226
-0 -0 -0 -0 -0 -0 -0 -0 -0 -0 -0 -0 -0 -0 -0 -0 -0 -0 -0 -0 -0 -0 -0 -0 -0 -0 -0 -0 -0 -0 -0 -0 -66 -8 -0 -0 -25 -46 -42 -16 -59 -49 -69 -0 -0 -6 -163 -49 -0 -0 -0 -0 -139 -169
-0 -0 -0 -0 -0 -0 -0 -0 -0 -0 -0 -0 -0 -0 -0 -0 -0 -0 -0 -0 -0 -0 -0 -0 -0 -0 -0 -0 -0 -0 -0 -0 -0 -0 -0 -0 -64 -46 -33 -68 -81 -124 -131 -132 -103 -162 -115 -132 -0 -104 -13 -20 -81 -118
-0 -0 -0 -0 -0 -0 -0 -0 -0 -0 -0 -0 -0 -0 -0 -0 -0 -0 -0 -0 -0 -0 -0 -0 -0 -0 -0 -0 -0 -0 -0 -0 -0 -0 -0 -0 -180 -139 -0 -0 -52 -37 -96 -109 -93 -99 -0 -111 -58 -60 -83 -90 -132 -181
-0 -0 -0 -0 -0 -0 -0 -0 -0 -0 -0 -0 -0 -0 -0 -0 -1 -0 -0 -0 -0 -0 -0 -0 -0 -0 -0 -0 -0 -0 -0 -0 -0 -0 -0 -0 -57 -0 -0 -34 -74 -0 -0 -0 -0 -0 -0 -41 -0 -51 -57 -86 -102 -170
-0 -0 -0 -0 -0 -0 -0 -0 -0 -0 -0 -0 -0 -0 -0 -0 -0 -0 -0 -0 -0 -0 -0 -0 -0 -0 -0 -28 -0 -0 -0 -0 -0 -0 -0 -0 -0 -0 -0 -5 -199 -0 -0 -0 -0 -0 -3 -78 -58 -95 -119 -72 -139 -171
-0 -0 -0 -0 -0 -0 -0 -0 -0 -0 -0 -0 -0 -0 -0 -0 -0 -0 -0 -0 -0 -3 -0 -0 -116 -44 -42 -0 -0 -0 -0 -0 -0 -0 -0 -0 -0 -0 -0 -0 -0 -0 -0 -0 -0 -0 -0 -0 -0 -66 -114 -160 -136 -104
-0 -0 -0 -0 -0 -0 -0 -0 -0 -0 -0 -0 -0 -0 -0 -0 -0 -0 -0 -0 -0 -0 -0 -138 -75 -19 -21 -50 -0 -0 -0 -0 -0 -0 -0 -0 -0 -0 -0 -0 -178 -221 -90 -0 -0 -0 -0 -0 -0 -0 -53 -106 -132 -99
-0 -0 -0 -0 -0 -0 -1 -0 -0 -0 -0 -0 -0 -0 -0 -0 -0 -5 -0 -0 -0 -0 -24 -25 -18 -38 -38 -46 -20 -36 -36 -0 -0 -0 -0 -0 -0 -0 -0 -0 -91 -74 -0 -0 -0 -0 -0 -0 -0 -0 -46 -55 -102 -165
-0 -0 -0 -0 -0 -0 -0 -0 -0 -0 -0 -0 -0 -10 -0 -0 -0 -0 -0 -0 -0 -0 -3 -6 -104 -99 -51 -40 -23 -31 -50 -38 -24 -1 -0 -0 -0 -0 -16 -21 -86 -44 -43 -61 -0 -0 -0 -2 -82 -12 -333 -284 -263 -8
-0 -0 -0 -0 -0 -0 -0 -0 -0 -0 -0 -0 -0 -0 -0 -0 -0 -1 -0 -0 -0 -12 -64 -174 -239 -75 -148 -15 -38 -77 -24 -49 -14 -20 -39 -31 -34 -37 -64 -71 -47 -44 -27 -0 -0 -7 -97 -98 -147 -272 -173 -351 -346 -316
-0 -0 -0 -0 -0 -0 -0 -0 -1 -1 -0 -0 -0 -0 -0 -0 -6 -1 -1 -6 -4 -5 -36 -62 -99 -148 -66 -56 -53 -145 -57 -83 -16 -109 -14 -14 -30 -75 -61 -52 -70 -51 -37 -75 -83 -122 -175 -153 -207 -148 -0 -0 -148 -269
-0 -0 -0 -0 -0 -0 -0 -0 -0 -0 -0 -1 -0 -0 -0 -1 -0 -0 -3 -4 -4 -23 -55 -32 -20 -25 -25 -24 -41 -72 -31 -53 -68 -51 -4 -56 -45 -65 -87 -104 -99 -47 -69 -85 -96 -100 -125 -102 -150 -173 -144 -173 -185 -223
-0 -0 -0 -0 -0 -0 -0 -0 -0 -0 -2 -0 -2 -0 -0 -0 -0 -1 -7 -2 -19 -27 -48 -37 -33 -21 -35 -14 -29 -7 -23 -4 -1 -5 -14 -61 -46 -51 -75 -112 -160 -119 -80 -94 -97 -78 -94 -147 -153 -137 -113 -20 -12 -11
-0 -0 -0 -0 -0 -0 -0 -0 -0 -2 -0 -0 -0 -0 -0 -8 -13 -15 -20 -16 -31 -50 -23 -32 -29 -44 -47 -12 -20 -16 -17 -6 -4 -24 -33 -50 -39 -49 -61 -74 -94 -93 -101 -0 -0 -0 -0 -0 -0 -0 -230 -233 -167 -94
-0 -0 -0 -0 -0 -0 -0 -0 -2 -0 -0 -0 -0 -0 -1 -5 -6 -10 -13 -16 -56 -9 -20 -33 -54 -16 -6 -18 -13 -8 -3 -10 -31 -54 -30 -49 -39 -26 -20 -27 -44 -67 -49 -0 -0 -0 -0 -0 -0 -143 -155 -248 -73 -50
-0 -0 -0 -0 -0 -0 -0 -0 -1 -0 -0 -1 -0 -1 -1 -0 -1 -10 -16 -31 -67 -16 -4 -7 -3 -1 -24 -13 -3 -43 -22 -18 -62 -6 -64 -88 -42 -27 -22 -53 -39 -41 -58 -12 -0 -0 -0 -0 -131 -0 -0 -0 -0 -0
-0 -4 -0 -0 -0 -0 -0 -0 -0 -0 -0 -0 -0 -0 -1 -2 -4 -6 -8 -17 -16 -11 -7 -5 -17 -1 -1 -2 -6 -7 -28 -36 -61 -20 -65 -56 -36 -32 -18 -39 -17 -16 -9 -0 -0 -23 -37 -82 -13 -6 -0 -0 -0 -0
-0 -0 -0 -0 -0 -0 -0 -0 -1 -0 -0 -0 -2 -10 -11 -1 -3 -3 -8 -14 -10 -9 -7 -7 -3 -3 -5 -13 -9 -12 -27 -23 -45 -31 -28 -23 -26 -24 -17 -10 -12 -14 -21 -0 -13 -37 -23 -28 -42 -0 -5 -25 -35 -59
-0 -0 -0 -0 -0 -0 -0 -0 -0 -0 -0 -1 -4 -3 -6 -2 -2 -2 -2 -0 -5 -5 -2 -3 -15 -26 -60 -48 -72 -55 -26 -37 -15 -44 -52 -38 -20 -9 -15 -15 -22 -27 -26 -29 -18 -26 -29 -20 -73 -22 -20 -25 -56 -58
-0 -2 -0 -0 -0 -0 -0 -1 -1 -0 -2 -0 -1 -3 -2 -3 -2 -1 -1 -3 -2 -1 -1 -32 -47 -83 -40 -13 -27 -27 -17 -24 -19 -21 -17 -28 -28 -34 -38 -38 -38 -33 -30 -30 -11 -30 -11 -42 -50 -32 -48 -38 -38 -52
-1 -2 -0 -1 -0 -0 -0 -5 -1 -4 -0 -0 -0 -0 -1 -1 -5 -7 -9 -3 -0 -6 -4 -5 -5 -36 -13 -12 -15 -15 -24 -9 -24 -32 -40 -49 -18 -24 -27 -25 -44 -18 -22 -29 -41 -32 -27 -31 -36 -25 -21 -32 -46 -36
-2 -1 -3 -0 -0 -3 -0 -2 -0 -0 -0 -1 -0 -0 -1 -1 -2 -11 -11 -18 -9 -14 -16 -13 -12 -8 -5 -11 -14 -9 -8 -5 -10 -21 -14 -25 -19 -17 -37 -34 -41 -28 -32 -38 -67 -17 -41 -26 -76 -47 -58 -34 -67 -38
-0 -0 -0 -0 -3 -0 -0 -0 -0 -0 -1 -0 -1 -0 -0 -5 -1 -2 -5 -15 -22 -18 -12 -14 -7 -2 -4 -7 -4 -8 -11 -28 -27 -12 -19 -15 -29 -51 -24 -54 -70 -67 -80 -46 -41 -41 -66 -33 -39 -66 -73 -26 -68 -71
-0 -8 -1 -0 -2 -0 -0 -0 -0 -0 -0 -0 -0 -1 -3 -1 -4 -1 -2 -7 -1 -1 -1 -1 -1 -1 -0 -0 -5 -4 -7 -8 -13 -22 -13 -41 -32 -59 -47 -94 -120 -125 -93 -47 -39 -14 -44 -99 -39 -13 -18 -47 -53 -38
-0 -5 -0 -0 -0 -0 -0 -0 -0 -3 -0 -0 -0 -0 -6 -2 -0 -1 -9 -25 -21 -18 -6 -6 -13 -6 -0 -4 -0 -2 -3 -7 -9 -7 -18 -10 -41 -47 -46 -33 -97 -104 -34 -47 -55 -53 -40 -49 -58 -31 -49 -44 -57 -39
-2 -1 -0 -3 -0 -0 -0 -0 -0 -0 -0 -3 -1 -0 -0 -2 -3 -6 -25 -26 -22 -51 -26 -0 -0 -0 -0 -0 -0 -0 -8 -13 -4 -29 -17 -19 -20 -18 -39 -18 -88 -71 -42 -48 -55 -50 -42 -34 -48 -31 -37 -34 -27 -51
-0 -0 -0 -0 -0 -0 -0 -0 -0 -0 -0 -0 -0 -0 -0 -1 -3 -4 -14 -52 -97 -0 -0 -0 -5 -0 -11 -0 -0 -0 -0 -3 -10 -35 -22 -30 -18 -55 -9 -32 -47 -44 -87 -117 -139 -102 -52 -38 -43 -55 -36 -39 -61 -50
-0 -0 -0 -0 -0 -0 -0 -0 -2 -0 -2 -2 -1 -3 -0 -4 -8 -0 -42 -84 -104 -115 -72 -0 -2 -0 -0 -0 -0 -0 -0 -21 -8 -14 -13 -13 -4 -35 -24 -13 -18 -87 -128 -100 -65 -91 -100 -20 -24 -52 -49 -71 -167 -155
-0 -0 -0 -3 -0 -0 -0 -0 -2 -11 -4 -3 -2 -0 -0 -0 -2 -9 -18 -95 -49 -20 -29 -20 -18 -14 -4 -10 -19 -5 -0 -71 -30 -10 -28 -43 -86 -173 -108 -25 -29 -52 -75 -60 -90 -100 -56 -0 -60 -85 -70 -48 -70 -65
-0 -0 -0 -0 -0 -0 -0 -0 -0 -0 -0 -0 -0 -0 -0 -0 -35 -51 -56 -44 -65 -63 -45 -19 -8 -17 -11 -4 -8 -36 -0 -0 -64 -101 -131 -99 -76 -79 -88 -58 -10 -65 -72 -81 -112 -39 -33 -27 -54 -31 -37 -43 -68 -72
-0 -0 -0 -0 -0 -0 -0 -0 -0 -0 -1 -1 -8 -10 -4 -22 -23 -59 -63 -105 -32 -56 -67 -90 -50 -2 -47 -32 -67 -99 -82 -175 -153 -108 -46 -121 -0 -211 -125 -85 -50 -42 -31 -11 -18 -19 -28 -41 -80 -80 -141 -118 -64 -196
-0 -0 -0 -0 -0 -0 -2 -0 -8 -6 -5 -5 -26 -3 -5 -9 -7 -25 -143 -96 -55 -67 -67 -43 -20 -89 -128 -80 -89 -123 -175 -133 -40 -75 -0 -0 -177 -173 -75 -0 -0 -96 -113 -82 -80 -136 -63 -59 -19 -68 -148 -157 -231 -89
Wind_Speed
14 14 15 15 16 16 15 15 16 17 18 19 19 18 18 17 14 7 9 10 5 7 16 17 12 11 12 8 5 11 10 7 1 4 4 5 5 7 7 13 9 10 4 5 3 4 2 3 9 7 3 7 12 12
14 15 15 15 16 16 16 16 16 16 18 19 19 18 17 16 14 10 5 9 9 5 11 20 24 22 21 21 9 5 5 6 4 5 5 4 3 4 6 7 4 2 4 8 8 7 6 10 10 7 7 3 8 14
14 15 15 16 16 17 18 17 16 17 18 19 19 19 17 15 13 8 5 6 6 6 11 10 14 20 18 21 14 5 3 2 5 3 2 4 3 3 3 4 7 6 8 5 7 5 7 10 8 7 5 1 9 14
14 15 15 15 16 17 17 18 17 18 18 19 19 19 17 15 13 11 5 4 4 5 6 8 6 11 12 17 19 17 14 11 6 3 2 3 2 4 4 2 3 1 7 3 4 5 6 4 6 8 10 11 11 9
15 15 15 15 16 17 18 18 18 18 18 19 19 19 17 16 15 11 8 7 8 4 5 10 19 11 15 10 14 12 10 6 2 3 2 3 4 5 4 4 4 4 3 4 3 5 3 2 8 10 10 10 9 10
14 15 15 14 15 17 18 18 19 19 19 20 20 19 17 14 10 5 3 5 8 6 5 6 7 9 12 10 8 7 5 4 3 2 3 4 6 1 1 2 4 8 8 8 3 6 8 6 7 9 9 9 13 13
14 15 15 14 15 16 18 20 21 20 21 22 22 20 16 12 4 5 3 1 6 4 4 6 6 6 7 6 3 4 5 3 4 4 4 4 4 1 3 4 4 6 6 6 7 7 6 6 1 5 7 10 12 9
13 14 15 14 14 15 17 19 21 22 24 25 24 20 15 10 6 6 5 10 3 3 4 5 6 3 5 4 3 5 4 3 3 4 2 4 3 1 2 0 1 4 4 7 6 5 2 5 5 5 4 10 12 14
13 14 15 14 14 14 16 18 20 23 25 28 25 15 2 4 3 2 3 7 3 2 4 4 4 4 4 5 2 2 4 3 4 4 4 4 4 4 6 8 5 3 1 2 4 6 7 7 6 4 2 12 13 10
13 13 15 17 14 14 14 17 19 22 27 25 6 2 1 2 9 3 2 4 4 4 5 5 4 6 4 3 3 5 3 4 4 6 4 2 3 5 4 7 6 6 7 4 4 5 5 7 8 10 11 13 15 15
12 13 14 15 14 13 13 15 17 21 10 5 5 3 4 11 2 4 4 5 6 5 5 5 9 6 5 2 1 6 4 1 2 4 6 5 3 2 7 9 7 6 5 4 3 4 15 11 11 11 11 13 11 12
13 13 14 14 14 13 13 13 12 9 6 7 6 5 4 3 3 4 4 4 6 5 5 4 5 6 4 2 3 3 3 5 3 5 2 3 1 6 9 9 8 8 12 16 15 15 13 12 10 10 8 9 7 7
13 13 13 14 14 13 13 13 11 13 14 2 2 3 2 3 2 5 5 3 2 4 4 4 3 2 2 2 4 5 2 5 4 2 1 2 4 6 7 7 8 7 12 11 9 9 9 8 10 8 6 3 4 6
13 14 14 14 13 13 14 10 10 9 5 3 3 4 4 4 5 3 4 3 3 6 8 3 2 2 3 1 2 1 3 3 4 3 1 4 6 7 7 9 11 11 10 10 9 8 9 10 8 7 8 7 5 4
12 13 16 16 12 6 7 10 11 4 3 3 4 4 7 2 3 7 6 3 7 9 7 2 3 3 4 2 2 1 2 4 2 3 3 6 7 8 8 7 7 7 7 7 7 7 7 7 7 6 7 6 6 6
11 14 3 3 1 7 12 12 5 3 2 4 6 5 4 2 2 2 2 3 2 7 2 3 3 3 3 4 4 5 4 2 3 2 3 6 7 6 6 7 6 6 6 6 6 6 6 7 4 3 5 5 6 6
6 4 4 3 9 14 14 3 2 4 4 4 5 6 7 6 5 1 4 1 4 6 3 1 4 3 5 4 3 4 5 1 2 2 3 3 6 5 5 6 5 5 5 5 5 5 3 2 1 3 3 3 3 5
4 1 4 5 8 9 3 5 4 5 7 7 6 6 4 4 6 6 2 3 3 4 3 2 2 3 4 4 2 1 1 2 5 5 4 3 4 5 4 5 3 5 4 3 1 1 2 3 2 1 1 3 4 4
6 8 12 10 5 4 3 3 4 4 5 5 5 4 3 5 4 4 6 5 4 4 3 2 4 4 1 2 3 2 2 1 3 3 4 4 4 5 5 3 4 4 4 3 2 2 2 2 0 1 3 1 1 1
12 15 16 10 4 3 4 4 3 4 5 3 5 6 4 3 4 4 5 4 4 2 3 3 3 1 5 3 6 5 1 2 0 3 3 3 2 4 5 4 4 5 4 4 4 2 3 2 2 1 3 4 2 3
5 0 2 6 4 5 4 4 4 3 4 5 6 7 4 5 5 5 4 3 3 3 3 3 4 7 5 1 2 3 2 1 2 1 3 3 4 5 5 5 7 4 4 4 4 4 3 4 2 3 4 3 3 2
1 2 2 3 3 3 3 4 5 6 4 6 8 4 5 6 7 5 5 5 5 7 6 4 5 4 3 4 3 2 4 2 2 2 1 3 4 3 4 3 3 5 5 8 5 5 4 4 4 3 3 4 3 1
4 2 3 3 3 1 6 3 4 4 4 3 3 3 3 2 2 1 2 3 3 2 2 2 2 1 3 5 5 5 4 3 3 3 3 4 3 3 3 4 4 1 3 4 4 3 5 7 6 5 3 4 4 3
1 3 3 3 4 4 4 3 4 4 4 3 3 4 3 2 3 3 4 3 1 2 2 2 3 4 3 3 2 3 4 4 4 4 3 4 3 3 4 4 3 3 4 4 3 5 5 4 6 7 5 5 5 5
3 4 3 5 4 4 4 3 4 3 4 2 3 4 2 3 2 2 2 3 1 2 1 2 3 4 5 6 5 3 2 2 4 6 6 5 2 1 2 1 2 3 6 3 1 4 5 6 5 4 8 9 6 6
3 4 6 4 2 3 3 3 1 3 4 3 3 3 1 3 3 1 2 1 2 2 3 4 5 6 6 6 7 5 3 3 4 5 6 5 5 4 4 3 3 11 8 2 2 6 5 6 7 6 4 8 12 9
4 5 5 4 2 2 4 4 5 5 5 3 2 3 2 2 3 0 2 4 3 5 6 4 4 6 7 6 5 5 7 7 5 5 5 4 3 5 6 3 7 4 1 3 5 9 11 7 5 5 6 4 6 7
4 4 3 2 2 2 3 3 3 3 3 2 3 3 3 2 2 2 4 4 5 1 2 3 4 7 5 5 6 6 7 4 3 6 6 4 5 4 5 4 4 3 4 2 5 5 5 6 5 6 6 3 3 2
3 3 4 8 7 3 3 3 4 4 2 2 3 5 4 5 8 9 4 3 4 4 4 4 6 6 5 5 6 7 6 4 2 7 8 6 3 5 6 6 4 5 4 4 10 7 6 6 7 9 7 3 4 5
3 2 3 5 5 4 6 7 5 7 7 6 6 8 9 9 8 8 3 2 2 5 5 4 4 5 5 5 4 6 7 5 5 4 1 2 3 7 7 3 5 4 4 5 7 10 8 4 0 2 4 3 2 1
2 1 2 4 4 4 6 6 6 8 9 10 10 10 10 7 2 2 4 3 4 5 7 4 3 2 3 5 5 7 3 4 6 7 6 4 5 6 4 6 3 6 7 10 11 11 10 13 5 5 5 2 7 9
3 3 1 3 4 4 6 5 6 7 8 7 6 4 4 1 2 3 3 3 5 8 6 8 9 9 8 3 2 3 12 3 9 8 10 5 4 5 4 5 5 5 7 8 8 9 6 8 8 6 5 6 5 9
2 1 3 3 4 4 3 3 2 4 2 2 1 2 1 2 2 2 3 3 1 6 3 2 2 8 13 7 7 5 5 5 6 2 5 8 6 4 5 6 6 6 8 7 2 4 11 12 3 7 8 8 4 4
Wind_Direction
315 316 317 320 320 320 323 322 324 328 333 333 335 333 333 334 339 341 287 279 307 289 283 264 288 312 316 289 294 333 328 1 68 155 190 247 260 256 233 236 224 232 209 226 193 152 156 358 42 78 176 26 95 96
312 312 313 313 314 314 316 318 318 321 328 329 328 328 328 330 332 335 280 355 331 261 272 302 285 269 251 256 298 318 286 302 331 27 14 329 301 330 269 257 224 66 235 186 139 170 152 90 112 89 96 70 115 116
307 309 311 311 311 312 312 316 319 319 319 321 322 322 324 321 318 313 286 309 292 265 277 243 248 254 229 232 225 257 282 354 17 13 292 270 290 5 336 70 356 12 17 86 78 10 101 115 117 121 104 188 138 143
303 305 308 309 309 310 311 314 316 318 318 314 315 316 315 313 306 301 272 277 299 267 278 289 324 289 291 198 217 223 250 291 314 9 295 269 307 11 343 349 19 127 32 64 90 50 75 49 141 137 111 93 95 96
301 302 306 308 308 310 312 313 311 309 312 312 309 311 309 310 306 290 257 231 231 265 307 299 301 268 245 210 197 208 217 235 250 306 282 284 301 26 336 15 17 23 68 57 314 321 144 170 131 134 132 132 131 111
296 298 304 305 306 309 312 311 311 311 311 308 304 304 305 306 313 301 268 170 202 205 284 291 327 283 287 153 168 177 209 208 192 195 249 246 245 108 78 335 329 12 3 34 33 70 82 53 98 97 105 114 129 128
296 297 300 304 306 311 310 310 311 311 309 305 300 296 297 294 264 230 313 276 335 187 256 286 275 230 210 127 179 187 197 189 165 215 234 260 294 298 153 172 287 326 347 46 35 34 55 76 55 69 149 167 150 137
291 295 297 300 306 311 310 309 311 312 310 303 300 299 290 280 252 259 227 222 196 259 260 273 266 260 158 179 215 193 156 168 209 223 252 199 300 240 211 186 340 325 57 57 38 21 10 17 70 359 356 139 151 153
293 295 297 300 305 308 309 317 315 314 307 308 305 306 241 211 244 30 38 113 191 291 289 274 300 265 320 239 242 175 163 169 199 198 227 166 227 217 187 217 221 229 104 55 54 31 14 0 323 319 134 153 140 129
290 294 295 304 306 304 314 318 319 314 313 309 314 320 42 21 311 260 166 180 196 214 221 252 267 270 323 304 228 186 178 226 168 217 183 199 257 255 270 208 156 117 70 40 100 49 349 6 27 68 81 75 90 84
288 289 291 297 303 309 313 318 320 318 296 354 348 340 309 295 283 218 224 206 176 220 213 236 225 250 289 252 326 25 302 342 201 250 170 179 166 338 91 78 71 75 75 30 348 81 75 68 91 100 86 90 100 113
288 288 290 294 302 309 309 311 320 322 337 305 296 295 279 269 242 254 232 214 196 233 192 221 234 191 252 174 109 358 8 338 290 320 67 98 31 51 79 73 55 39 70 60 65 79 75 75 96 113 126 132 143 143
289 290 289 290 299 303 302 303 301 292 297 200 208 251 247 244 282 238 219 214 228 338 335 324 320 317 180 287 119 134 183 255 310 4 195 128 114 63 60 74 50 55 83 75 69 66 65 72 55 53 78 95 150 173
285 289 289 288 295 297 295 286 294 311 280 261 252 269 227 206 246 253 339 326 303 314 315 307 307 329 329 255 11 71 175 163 218 223 141 135 97 79 68 63 65 54 60 70 62 61 57 54 45 36 37 20 16 16
287 290 287 284 273 260 268 280 290 282 273 269 279 252 223 305 240 284 312 1 3 305 282 322 19 43 311 253 214 74 250 248 227 65 99 135 105 83 80 74 71 70 66 63 63 63 58 52 43 32 31 7 4 11
296 295 238 120 315 294 285 292 264 212 243 245 242 265 311 271 301 345 338 310 267 315 339 52 52 87 275 247 214 194 223 49 40 113 70 109 97 86 90 84 81 71 72 69 70 66 59 54 19 356 25 7 3 356
282 253 144 15 316 294 280 251 206 211 242 235 240 244 270 279 296 317 272 205 269 311 2 45 120 264 294 257 172 22 43 339 174 86 290 92 110 101 90 99 97 90 77 63 55 66 65 270 317 53 347 347 310 299
240 213 103 353 330 288 260 200 250 234 233 235 242 265 264 269 286 294 337 339 360 322 342 58 77 323 302 347 50 63 337 35 132 186 221 207 132 138 118 121 136 120 117 131 181 249 254 299 183 119 11 266 276 265
273 303 312 322 326 299 267 218 233 264 258 262 241 233 245 273 252 277 279 280 273 278 300 263 205 196 123 325 38 342 345 335 71 103 126 145 161 159 148 194 171 157 178 184 262 128 122 92 202 242 233 202 19 291
274 273 269 269 239 255 257 244 222 256 279 305 308 284 257 259 268 274 272 276 296 294 203 229 251 87 142 204 230 225 184 340 337 112 150 150 206 207 187 190 217 199 205 200 222 175 172 246 346 163 76 86 41 21
258 64 114 175 201 229 271 289 262 251 284 281 287 286 269 270 250 252 257 236 227 225 250 227 279 289 310 192 320 356 159 236 308 24 146 168 200 189 208 208 234 209 202 216 208 174 200 164 213 150 152 155 226 172
70 258 271 172 262 196 258 255 269 311 279 270 287 259 260 250 257 234 243 222 234 231 233 234 247 253 319 351 7 343 297 165 342 101 100 145 203 216 219 232 270 243 233 187 210 167 152 157 191 173 134 139 128 139
286 240 242 230 252 293 259 232 245 238 258 264 262 251 222 234 248 132 267 231 230 193 168 225 265 299 278 273 276 278 283 260 240 251 243 216 188 207 202 243 261 264 288 214 188 162 150 179 170 169 179 175 179 219
92 259 235 215 198 259 243 228 223 257 251 248 266 280 299 312 251 207 245 184 144 90 79 30 306 288 283 245 285 307 333 352 327 281 254 280 183 252 204 228 266 304 304 273 137 157 149 157 155 170 185 197 198 196
247 259 187 250 236 236 253 242 218 245 259 298 277 271 344 298 273 256 299 39 92 160 159 8 310 298 301 298 310 309 68 303 269 242 244 213 221 224 300 225 278 284 289 282 156 175 160 177 187 215 186 196 203 225
235 223 190 242 211 234 278 282 264 282 288 297 305 329 260 251 259 343 78 204 351 342 329 303 291 284 278 282 276 281 279 273 250 263 268 214 181 185 215 181 105 279 246 216 6 277 229 184 190 196 223 189 194 214
245 244 216 232 232 254 286 301 298 261 269 264 297 292 274 282 275 243 169 210 210 206 221 242 262 275 272 279 294 288 277 250 260 270 299 294 213 238 195 210 191 224 352 25 308 276 216 206 232 244 217 208 205 206
252 290 285 314 310 287 274 280 280 271 254 274 302 287 294 295 274 233 245 223 227 14 239 237 237 258 256 235 254 262 256 275 252 274 275 254 248 206 209 218 200 210 272 280 278 306 217 196 237 249 251 171 64 56
247 261 286 280 266 240 251 246 245 259 299 300 286 292 283 323 320 303 310 134 154 214 255 263 267 238 227 217 234 243 246 242 269 233 228 255 194 209 226 213 195 197 221 264 299 295 264 222 229 227 240 146 176 131
260 270 265 262 256 236 223 223 288 332 330 313 313 296 284 282 298 325 111 132 281 305 280 257 268 270 252 253 245 215 196 207 222 234 188 303 2 320 316 258 205 208 224 257 276 287 284 177 329 271 222 159 239 246
288 300 286 263 262 258 264 279 271 270 265 267 258 257 266 282 70 39 344 325 295 294 309 271 233 222 324 341 0 62 66 271 204 183 163 225 245 262 300 342 266 210 235 250 255 254 256 231 191 211 176 203 86 89
153 206 244 283 288 307 318 258 243 238 256 239 253 269 258 119 123 260 267 276 9 21 17 18 14 346 326 88 314 253 210 254 235 212 214 203 237 247 252 275 278 274 262 267 285 270 212 189 198 215 85 92 111 129
97 148 209 262 259 248 210 248 287 317 318 25 257 296 352 0 344 131 257 227 248 127 142 86 97 269 284 268 213 259 299 291 290 74 359 291 250 263 300 292 288 219 220 258 338 25 329 315 249 159 165 179 165 269